Regional Weather Roundup
Issued by NWS Grand Forks, ND

Home | Current Version | Previous Version | Graphics & Text | Print | Product List | Glossary On
Versions: 1 2 3 4 5 6 7 8 9 10 11 12 13 14 15 16 17 18 19 20 21 22 23 24 25 26 27 28 29 30 31 32 33 34 35 36 37 38 39 40 41 42 43 44 45 46 47 48 49 50
000
ASUS43 KFGF 020331
RWRFGF
PRAIRIE TO PINES  WEATHER ROUNDUP
NATIONAL WEATHER SERVICE EASTERN NORTH DAKOTA/GRAND FORKS ND
1000 PM CDT MON SEP 01 2014

 **SATELLITE DATA USED TO AUGMENT SKY COVER AT AUTOMATED STATIONS**
 *****  WEATHER ACROSS EASTERN NORTH DAKOTA  *****

CITY           SKY/WX    TMP DP  RH WIND       PRES   REMARKS
GRAND FORKS    PTCLDY    59  53  80 W3        29.76R
GRAND FRKS AFB CLEAR     55  53  92 W6        29.77R
GRAND FRKS NWS   N/A     57 N/A N/A W5          N/A
DEVILS LAKE    CLEAR     61  52  72 SW8       29.78R
FARGO          CLEAR     59  56  89 S5        29.80R
WAHPETON ARPT  CLEAR     54  50  87 W5        29.82R
$$

 ***** WEATHER ACROSS CENTRAL AND WESTERN NORTH DAKOTA  *****

CITY           SKY/WX    TMP DP  RH WIND       PRES   REMARKS
BISMARCK       PTCLDY    59  53  80 SW5       29.87R
MINOT          CLEAR     58  47  66 SW9       29.80R
JAMESTOWN      CLEAR     58  51  78 CALM      29.83R
MINOT AFB      CLEAR     54  49  84 W8        29.79R
GARRISON         N/A     53  49  86 W6        29.83R
WILLISTON      CLOUDY    62  47  57 SW8       29.83R
DICKINSON      CLEAR     52  46  80 S8        29.87S
HETTINGER      CLEAR     53  46  77 S3        29.92R
$$

 *****  OTHER AIRPORT OBSERVATIONS IN OUR AREA  *****

CITY           SKY/WX    TMP DP  RH WIND       PRES   REMARKS
WALHALLA         N/A     59  48  67 W5        29.74S
GRAFTON AIRPOR FAIR      57  52  82 W8        29.75R
VALLEY CITY AR FAIR      57  57 100 W8        29.83R
CANDO          FAIR      50  48  93 SW7       29.79R
CAVALIER APRT  FAIR      57  50  77 W9        29.74R
GWINNER        CLEAR     57  55  94 W6        29.85S
SHEYENNE NWR     N/A     57  54  89 CALM      29.95S
ROLLA          FAIR      54  48  82 W9        29.79R
 ***** THE ABOVE OBSERVATIONS ARE NON NWS ARE NOT QUALITY
       CONTROLLED AND MAY MIS-REPORT RAIN FOR SNOW...
$$

  *****  WEATHER ACROSS NORTHERN MINNESOTA  *****

CITY           SKY/WX    TMP DP  RH WIND       PRES   REMARKS
FLAG ISLAND    CLEAR     59  54  82 SW14      29.68S
WARROAD        CLEAR     57  54  88 SW7       29.73R
ROSEAU           N/A     55  50  82 S7        29.73R
HALLOCK        CLEAR     57  54  88 SW8       29.73R
THF RVR FALLS  CLEAR     55  54  94 S5        29.77S
BAUDETTE       CLEAR     54  51  90 CALM      29.72R
WASKISH        PTCLDY    52  50  93 CALM      29.75S
CROOKSTON      PTCLDY    57  55  94 SW6       29.79R
$$
  *****  WEATHER ACROSS CENTRAL AND WEST MINNESOTA  *****

CITY           SKY/WX    TMP DP  RH WIND       PRES   REMARKS
FOSSTON        CLEAR     50  48  93 S5        29.80R
BEMIDJI        PTCLDY    56  53  88 SW7       29.78R
PARK RAPIDS    CLOUDY    55  54  96 CALM      29.80R
ELBOW LAKE     FAIR      61  55  82 NE5       29.82R
WADENA         MOCLDY    54  52  94 CALM      29.81R
DETROIT LAKES  PTCLDY    55  54  94 S3        29.82S
MOORHEAD       CLEAR     59  59 100 CALM      29.82R
FERGUS FALLS   CLEAR     59  52  77 CALM      29.82R
MORRIS MN      PTCLDY    64  55  72 W9        29.82R
STAPLES        MOCLDY    54  52  94 S5        29.80R
$$
  *****  WEATHER ELSEWHERE ACROSS MINNESOTA  *****

CITY           SKY/WX    TMP DP  RH WIND       PRES   REMARKS
DULUTH         PTCLDY    56  50  80 W7        29.77R
INTRNTL FALLS  PTCLDY    51  50  96 SW3       29.71S
ELY            CLEAR     52  48  87 SW5       29.73S
CLOQUET        PTCLDY    59  52  77 SW5       29.76F
WHEATON        PTCLDY    59  55  88 W3        29.85R
BRAINERD       LGT RAIN  55  54  96 S10       29.79F
HIBBING        MOCLDY    54  50  86 CALM      29.75R
ALEXANDRIA     PTCLDY    61  56  83 NE6       29.84R
SAINT CLOUD    CLEAR     64  59  83 CALM      29.80R
MINNEAPOLIS    PTCLDY    69  57  65 SW5       29.81R
$$

  *****  WEATHER ACROSS SOUTH DAKOTA  *****

CITY           SKY/WX    TMP DP  RH WIND       PRES   REMARKS
SIOUX FALLS    CLOUDY    63  57  81 NW5       29.88R
BROOKINGS      NOT AVBL
WATERTOWN      CLOUDY    61  51  70 SW9       29.86R
HURON          CLOUDY    61  55  81 SW8       29.87S
SISSETON         N/A     64  56  75 W6        29.83R
ABERDEEN       CLOUDY    58  57  97 S5        29.85R
MITCHELL       LGT RAIN  60  58  92 SW9       29.92R
PIERRE         CLOUDY    60  53  77 CALM      29.89S
MOBRIDGE       CLOUDY    57  54  89 CALM      29.86F
RAPID CITY     CLEAR     52  48  86 W3        29.99R
$$

  *****  SOME WEATHER IN NEARBY STATES *****

CITY           SKY/WX    TMP DP  RH WIND       PRES   REMARKS
GLASGOW MT     MOCLDY    61  50  67 S7        29.82R
GREAT FALLS MT PTCLDY    54  37  52 SW13      29.91R
CHEYENNE WY    PTCLDY    56  44  64 N6        30.15R
SCOTTSBLUFF NE CLEAR     58  48  69 CALM      30.06R
OMAHA NE       PTCLDY    67  61  81 CALM      29.87F
DES MOINES IA  CLOUDY    71  64  78 NW6       29.86R
DAVENPORT IA   CLOUDY    69  66  90 W3        29.86R
CHICAGO IL     CLOUDY    71  65  81 W7        29.83R
EAU CLAIRE WI  CLEAR     62  59  90 CALM      29.79S
LA CROSSE WI   PTCLDY    69  59  70 NW3       29.81R
$$

  *****  SOME NATIONAL WEATHER *****

CITY           SKY/WX    TMP DP  RH WIND       PRES   REMARKS
LA GUARDIA NY  PTCLDY    81  73  76 SW8       29.94S
RALEIGH NC     PTCLDY    80  70  71 CALM      30.06S
ATLANTA GA     MOCLDY    77  71  82 CALM      30.13R
NEW ORLEANS LA CLOUDY    82  76  81 SE5       30.04S
OKLAHOMA CITY  PTCLDY    86  68  54 S16       29.81S
ALBUQUERQUE NM CLEAR     82  38  20 SE5       30.04R
SALT LAKE CITY CLEAR     71  33  24 CALM      30.04R
LOS ANGELES CA PTCLDY    71  65  81 W6        29.79R
BOISE ID       CLEAR     70  35  27 CALM      29.98S
SEATTLE WA     MOCLDY    70  54  56 CALM      30.00F
$$

*** WEATHER ACROSS MANITOBA...SASKATCHEWAN AND ONTARIO ***
                ***ONTARIO***

CITY           SKY/WX    TMP DP  RH WIND       PRES   REMARKS
GERALDTON      MOCLDY    61  57  88 W6        29.57R
THUNDER BAY    PTCLDY    59  57  94 W6        29.65R
SIOUX LOOKOUT  PTCLDY    54  54 100 N6        29.65R
TORONTO        LGT RAIN  73  70  88 S9        29.79F
BIG TROUT LK   CLOUDY    57  55  94 NW3       29.47S
PICKLE LAKE    NOT AVBL
DRYDEN         CLEAR     57  52  82 SW8       29.66S
KENORA         PTCLDY    57  54  88 SW8       29.69R
$$
                *** MANITOBA***

CITY           SKY/WX    TMP DP  RH WIND       PRES   REMARKS
BRANDON        CLEAR     54  48  82 W7        29.74R
DAUPHIN        CLEAR     54  50  87 W7        29.69S
ISLAND LAKE    MOCLDY    55  54  94 CALM      29.57R
PILOT MOUND      N/A     52  46  82 SW6         N/A
THE PAS        PTCLDY    55  48  76 SW6       29.61S
THOMPSON       MOCLDY    52  50  93 W7        29.53S
WINNIPEG       CLEAR     55  48  76 W8        29.71R
CHURCHILL      MOCLDY    50  50 100 E6        29.51S
GILLAM         PTCLDY    59  52  77 NW5       29.49S
$$
                ***SASKATCHEWAN***

CITY           SKY/WX    TMP DP  RH WIND       PRES   REMARKS
ESTEVAN        PTCLDY    54  46  76 W2        29.81R
KINDERSLEY     PTCLDY    52  46  82 E5        29.74S
LLOYDMINSTER   MOCLDY    54  43  66 NW7       29.72R
PRINCE ALBERT  MOCLDY    55  50  82 VRB2      29.67S
REGINA         PTCLDY    54  48  82 S9        29.76S
YORKTON        CLEAR     57  46  67 SW8       29.73R
N. BATTLEFORD  PTCLDY    50  46  87 SW5       29.73R
LA RONGE       MOCLDY    50  50 100 CALM      29.63F
SASKATOON      LGT RAIN  54  50  87 S8        29.74F
SWIFT CURRENT  MOCLDY    54  45  71 S8        29.75S
$$
NOTE: THESE ARE AUTOMATED STATIONS WITH LIMITED QUALITY CONTROL
      "FAIR" INDICATES FEW OR NO CLOUDS BELOW 12,000 FEET WITH NO
      SIGNIFICANT WEATHER AND/OR OBSTRUCTIONS TO VISIBILITY.
      SKY/WX - SKY CONDITION AND SIGNIFICANT WEATHER.
      TMP - AIR TEMPERATURE.    DP   - DEWPOINT TEMPERATURE.
      RH  - RELATIVE HUMIDITY.  PRES - PRESSURE.
      HX  - HEAT INDEX.         WCI  - WIND CHILL INDEX.
$



USA.gov is the U.S. government's official web portal to all federal, state and local government web resources and services.